Date String (YYYY-MM-DD hh:mm:ss) UTC,Instrument flags,Ambient pressure (hPa),Sample flow (lpm),Bypass flow (lpm),Sample temperature (°C),Ambient temperature (°C),ASC tube jacket temperature (°C),LED temperature (°C),Box temperature (°C),Sample RH (%),Span deviation,Mass concentration (μg/m³),Mass concentration (μg/m³),Mass concentration (μg/m³)
DateTimeUTC,F1_M11,P_M11,Q1_M11,Q2_M11,T1_M11,T2_M11,T3_M11,T4_M11,T5_M11,U1_M11,ZSPAN_M11,X0_M11,X2_M11,X1_M11
2022-01-26 15:00:00,,0823.8,5.00,0.00,22.3,22.8,00.0,31.2,24.1,08.0,0000.0,0005.73,0004.31,0004.24
2022-01-26 15:01:00,,0823.8,5.00,0.00,22.4,23.1,00.0,31.3,24.3,07.9,0000.0,0005.82,0004.34,0004.27
2022-01-26 15:02:00,,0823.8,5.00,0.00,22.4,22.9,00.0,31.3,24.2,07.9,0000.0,0005.77,0004.35,0004.28
2022-01-26 15:03:00,,0823.8,5.01,0.00,22.4,22.6,00.0,31.3,24.2,07.9,0000.0,0005.78,0004.37,0004.31
2022-01-26 15:04:00,,0823.9,5.01,0.00,22.4,22.4,00.0,31.3,24.1,07.9,0000.0,0005.83,0004.38,0004.30
2022-01-26 15:05:00,,0823.9,5.00,0.00,22.4,22.2,00.0,31.3,24.0,07.9,0000.0,0005.82,0004.38,0004.31
2022-01-26 15:06:00,,0823.9,4.99,0.00,22.3,22.0,00.0,31.3,24.0,07.9,0000.0,0005.86,0004.40,0004.33
2022-01-26 15:07:00,,0823.9,5.00,0.00,22.3,21.9,00.0,31.3,23.9,07.9,0000.0,0005.94,0004.41,0004.33
2022-01-26 15:08:00,,0823.9,5.00,0.00,22.2,21.8,00.0,31.3,23.9,07.9,0000.0,0006.04,0004.44,0004.34
2022-01-26 15:09:00,,0823.8,5.00,0.00,22.2,21.7,00.0,31.2,23.8,08.0,0000.0,0006.03,0004.44,0004.34
2022-01-26 15:10:00,,0823.8,5.00,0.00,22.2,21.6,00.0,31.2,23.8,08.0,0000.0,0005.97,0004.45,0004.35
2022-01-26 15:11:00,,0823.8,5.00,0.00,22.2,21.6,00.0,31.2,23.8,07.9,0000.0,0005.95,0004.44,0004.35
2022-01-26 15:12:00,,0823.9,5.01,0.00,22.2,22.3,00.0,31.2,24.0,07.9,0000.0,0005.92,0004.42,0004.33
2022-01-26 15:13:00,,0823.8,5.01,0.00,22.4,23.3,00.0,31.3,24.3,07.9,0000.0,0005.86,0004.39,0004.31
2022-01-26 15:14:00,,0823.8,5.00,0.00,22.5,23.4,00.0,31.3,24.4,07.8,0000.0,0005.84,0004.38,0004.29
2022-01-26 15:15:00,,0823.9,4.99,0.00,22.6,23.1,00.0,31.3,24.4,07.8,0000.0,0005.82,0004.37,0004.27
2022-01-26 15:16:00,,0823.9,4.99,0.00,22.6,22.9,00.0,31.4,24.4,07.7,0000.0,0005.89,0004.35,0004.25
2022-01-26 15:17:00,,0823.9,5.01,0.00,22.5,22.7,00.0,31.4,24.3,07.8,0000.0,0005.94,0004.34,0004.23
2022-01-26 15:18:00,,0823.9,5.01,0.00,22.5,22.5,00.0,31.4,24.3,07.8,0000.0,0005.90,0004.32,0004.22
2022-01-26 15:19:00,,0823.9,5.00,0.00,22.5,22.3,00.0,31.4,24.2,07.8,0000.0,0005.83,0004.29,0004.19
2022-01-26 15:20:00,,0823.9,5.00,0.00,22.5,22.2,00.0,31.4,24.2,07.8,0000.0,0005.85,0004.28,0004.17
2022-01-26 15:21:00,,0823.8,5.00,0.00,22.5,22.0,00.0,31.4,24.1,07.8,0000.0,0005.85,0004.27,0004.15
2022-01-26 15:22:00,,0823.8,5.00,0.00,22.4,21.9,00.0,31.4,24.0,07.8,0000.0,0005.91,0004.28,0004.16
2022-01-26 15:23:00,,0823.8,5.01,0.00,22.4,21.8,00.0,31.4,24.0,07.9,0000.0,0005.93,0004.29,0004.16
2022-01-26 15:24:00,,0823.8,5.00,0.00,22.4,21.8,00.0,31.4,24.0,07.9,0000.0,0005.94,0004.29,0004.17
2022-01-26 15:25:00,,0823.9,5.00,0.00,22.4,21.7,00.0,31.4,24.0,07.9,0000.0,0005.97,0004.31,0004.19
2022-01-26 15:26:00,,0823.9,5.00,0.00,22.3,21.7,00.0,31.3,24.0,07.9,0000.0,0005.95,0004.31,0004.20
2022-01-26 15:27:00,,0824.0,4.99,0.00,22.3,21.7,00.0,31.3,24.0,07.9,0000.0,0005.82,0004.28,0004.18
2022-01-26 15:28:00,,0824.0,5.00,0.00,22.3,22.0,00.0,31.3,24.0,07.9,0000.0,0005.76,0004.27,0004.17
2022-01-26 15:29:00,,0824.0,5.01,0.00,22.5,23.1,00.0,31.4,24.4,07.8,0000.0,0005.58,0004.23,0004.15
2022-01-26 15:30:00,,0824.0,5.01,0.00,22.6,23.8,00.0,31.4,24.6,07.8,0000.0,0005.53,0004.22,0004.14
2022-01-26 15:31:00,,0824.0,5.00,0.00,22.7,23.6,00.0,31.5,24.7,07.8,0000.0,0005.50,0004.21,0004.14
2022-01-26 15:32:00,,0823.9,4.99,0.00,22.8,23.3,00.0,31.5,24.7,07.7,0000.0,0005.45,0004.20,0004.13
2022-01-26 15:33:00,,0824.0,5.00,0.00,22.8,23.1,00.0,31.5,24.6,07.7,0000.0,0005.41,0004.18,0004.12
2022-01-26 15:34:00,,0824.0,4.98,0.00,22.8,22.9,00.0,31.5,24.6,07.7,0000.0,0005.30,0004.15,0004.09
2022-01-26 15:35:00,,0824.0,5.00,0.00,22.8,22.7,00.0,31.5,24.6,07.7,0000.0,0005.25,0004.13,0004.07
2022-01-26 15:36:00,,0824.0,5.01,0.00,22.7,22.5,00.0,31.5,24.5,07.7,0000.0,0005.21,0004.11,0004.05
2022-01-26 15:37:00,,0824.0,5.01,0.00,22.7,22.4,00.0,31.6,24.5,07.7,0000.0,0005.18,0004.10,0004.04
2022-01-26 15:38:00,,0824.0,5.00,0.00,22.7,22.3,00.0,31.6,24.5,07.7,0000.0,0005.20,0004.11,0004.05
2022-01-26 15:39:00,,0824.0,5.00,0.00,22.7,22.2,00.0,31.6,24.4,07.6,0000.0,0005.18,0004.11,0004.05
2022-01-26 15:40:00,,0824.0,5.00,0.00,22.7,22.1,00.0,31.6,24.3,07.5,0000.0,0005.17,0004.11,0004.05
2022-01-26 15:41:00,,0823.9,5.00,0.00,22.6,22.0,00.0,31.6,24.2,07.4,0000.0,0005.15,0004.10,0004.05
2022-01-26 15:42:00,,0824.0,5.00,0.00,22.6,21.9,00.0,31.6,24.2,07.4,0000.0,0005.10,0004.08,0004.02
2022-01-26 15:43:00,,0824.0,4.99,0.00,22.5,21.9,00.0,31.5,24.2,07.5,0000.0,0005.24,0004.11,0004.04
2022-01-26 15:44:00,,0824.0,5.00,0.00,22.5,21.8,00.0,31.5,24.1,07.6,0000.0,0005.32,0004.12,0004.05
2022-01-26 15:45:00,,0824.0,5.00,0.00,22.5,21.8,00.0,31.5,24.1,07.6,0000.0,0005.39,0004.14,0004.07
2022-01-26 15:46:00,,0823.9,5.01,0.00,22.4,21.7,00.0,31.5,24.0,07.6,0000.0,0005.42,0004.16,0004.10
2022-01-26 15:47:00,,0824.0,4.99,0.00,22.4,21.6,00.0,31.5,24.0,07.5,0000.0,0005.52,0004.20,0004.12
2022-01-26 15:48:00,,0823.9,5.01,0.00,22.3,21.6,00.0,31.5,23.9,07.5,0000.0,0005.61,0004.22,0004.14
2022-01-26 15:49:00,,0824.0,4.98,0.00,22.3,22.1,00.0,31.4,24.0,07.5,0000.0,0005.72,0004.25,0004.14
2022-01-26 15:50:00,,0824.1,5.02,0.00,22.5,23.2,00.0,31.5,24.3,07.5,0000.0,0005.79,0004.27,0004.16
2022-01-26 15:51:00,,0824.1,5.01,0.00,22.6,23.7,00.0,31.5,24.6,07.5,0000.0,0005.83,0004.28,0004.17
2022-01-26 15:52:00,,0824.1,4.98,0.00,22.7,23.4,00.0,31.5,24.6,07.5,0000.0,0005.90,0004.31,0004.19
2022-01-26 15:53:00,,0824.0,5.01,0.00,22.7,23.1,00.0,31.6,24.5,07.5,0000.0,0005.93,0004.32,0004.21
2022-01-26 15:54:00,,0824.0,5.00,0.00,22.7,22.8,00.0,31.6,24.4,07.5,0000.0,0005.84,0004.30,0004.20
2022-01-26 15:55:00,,0824.0,4.99,0.00,22.6,22.6,00.0,31.6,24.3,07.5,0000.0,0005.80,0004.28,0004.18
2022-01-26 15:56:00,,0824.1,5.00,0.00,22.6,22.4,00.0,31.6,24.2,07.6,0000.0,0005.78,0004.28,0004.18
2022-01-26 15:57:00,,0824.0,5.00,0.00,22.6,22.3,00.0,31.5,24.2,07.6,0000.0,0005.88,0004.30,0004.18
2022-01-26 15:58:00,,0824.0,5.00,0.00,22.5,22.1,00.0,31.5,24.2,07.6,0000.0,0005.81,0004.28,0004.16
2022-01-26 15:59:00,,0824.0,5.01,0.00,22.5,22.0,00.0,31.5,24.1,07.6,0000.0,0005.74,0004.26,0004.15
